Terminal Aerodrome Forecast
Issued by NWS Columbia, SC

Home | Current Version | Previous Version | Text Only | Print | Product List | Glossary On
Versions: 1 2 3 4 5 6 7 8 9 10 11 12 13 14 15 16 17 18 19 20 21 22 23 24 25 26 27 28 29 30 31 32 33 34 35 36 37 38 39 40 41 42 43 44 45 46 47 48 49 50
000
FTUS42 KCAE 260500
TAFAGS
TAF
KAGS 260538Z 2606/2706 33012KT P6SM -RA SCT010 OVC025
     FM260800 33012KT 3SM -RA BR OVC015
     FM261400 31012G18KT 4SM -RA BR OVC025
     FM261600 31014G22KT P6SM BKN040
     FM262300 27006KT P6SM SCT060 SCT250=

USA.gov is the U.S. government's official web portal to all federal, state and local government web resources and services.